Hourly Weather Rucewo

Today, 2 August, Monday

Time Temperature Precipitation Wind Pressure Humidity
00:00 +16°C° 0 mm 2 mps 744 mmHg 89%
01:00 +16°C° 0 mm 2 mps 743 mmHg 89%
02:00 +15°C° 0 mm 2 mps 743 mmHg 91%
03:00 +15°C° 0 mm 2 mps 743 mmHg 93%
04:00 +15°C° 0 mm 2 mps 743 mmHg 94%
05:00 +16°C° 0 mm 3 mps 743 mmHg 91%
06:00 +17°C° 0 mm 3 mps 743 mmHg 88%
07:00 +17°C° 0 mm 3 mps 743 mmHg 85%
08:00 +18°C° 0.2 mm 4 mps 743 mmHg 76%
09:00 +20°C° 0.2 mm 5 mps 744 mmHg 68%
10:00 +21°C° 0.2 mm 6 mps 744 mmHg 59%
11:00 +21°C° 0.1 mm 6 mps 744 mmHg 54%
12:00 +21°C° 0.1 mm 6 mps 744 mmHg 48%
13:00 +22°C° 0.1 mm 6 mps 744 mmHg 43%
14:00 +22°C° 0 mm 6 mps 744 mmHg 42%
15:00 +22°C° 0 mm 6 mps 745 mmHg 41%
16:00 +22°C° 0 mm 6 mps 745 mmHg 40%
17:00 +21°C° 0 mm 6 mps 745 mmHg 44%
18:00 +20°C° 0 mm 5 mps 745 mmHg 47%
19:00 +19°C° 0 mm 4 mps 745 mmHg 51%
20:00 +18°C° 0 mm 4 mps 746 mmHg 56%
21:00 +15°C° 0 mm 4 mps 746 mmHg 61%
22:00 +14°C° 0 mm 4 mps 746 mmHg 66%
23:00 +14°C° 0 mm 4 mps 746 mmHg 69%

Tomorrow, 3 August, Tuesday

Time Temperature Precipitation Wind Pressure Humidity
00:00 +13°C° 0 mm 4 mps 747 mmHg 72%
01:00 +13°C° 0 mm 4 mps 747 mmHg 75%
02:00 +12°C° 0 mm 4 mps 747 mmHg 79%
03:00 +12°C° 0 mm 4 mps 747 mmHg 83%
04:00 +11°C° 0 mm 3 mps 747 mmHg 87%
05:00 +13°C° 0 mm 4 mps 748 mmHg 81%
06:00 +14°C° 0 mm 4 mps 748 mmHg 76%
07:00 +17°C° 0 mm 4 mps 748 mmHg 71%
08:00 +18°C° 0.1 mm 4 mps 748 mmHg 66%
09:00 +20°C° 0.1 mm 4 mps 748 mmHg 61%
10:00 +21°C° 0.1 mm 4 mps 749 mmHg 57%
11:00 +21°C° 0.9 mm 4 mps 749 mmHg 59%
12:00 +21°C° 0.9 mm 4 mps 749 mmHg 62%
13:00 +20°C° 0.9 mm 4 mps 749 mmHg 65%
14:00 +20°C° 0.6 mm 4 mps 749 mmHg 63%
15:00 +20°C° 0.6 mm 3 mps 749 mmHg 62%
16:00 +20°C° 0.6 mm 3 mps 749 mmHg 60%
17:00 +19°C° 0.1 mm 3 mps 749 mmHg 64%
18:00 +18°C° 0.1 mm 2 mps 749 mmHg 68%
19:00 +19°C° 0.1 mm 1 mps 749 mmHg 72%
20:00 +18°C° 0 mm 1 mps 749 mmHg 75%
21:00 +16°C° 0 mm 1 mps 749 mmHg 78%
22:00 +15°C° 0 mm 1 mps 750 mmHg 82%
23:00 +14°C° 0 mm 1 mps 750 mmHg 83%

Day after tomorrow, 4 August, Wednesday

Time Temperature Precipitation Wind Pressure Humidity
00:00 +14°C° 0 mm 1 mps 750 mmHg 85%
01:00 +12°C° 0 mm 0 mps 750 mmHg 87%
02:00 +12°C° 0 mm 0 mps 750 mmHg 87%
03:00 +12°C° 0 mm 0 mps 750 mmHg 87%
04:00 +12°C° 0 mm 0 mps 750 mmHg 87%
05:00 +13°C° 0 mm 0 mps 750 mmHg 81%
06:00 +16°C° 0 mm 1 mps 750 mmHg 74%
07:00 +19°C° 0 mm 1 mps 750 mmHg 68%
08:00 +20°C° 0 mm 1 mps 750 mmHg 61%
09:00 +22°C° 0 mm 1 mps 750 mmHg 54%
10:00 +24°C° 0 mm 1 mps 750 mmHg 47%
11:00 +24°C° 0 mm 1 mps 750 mmHg 45%
12:00 +24°C° 0 mm 2 mps 750 mmHg 43%
13:00 +25°C° 0 mm 2 mps 750 mmHg 41%
14:00 +24°C° 0 mm 2 mps 750 mmHg 45%
15:00 +23°C° 0 mm 2 mps 750 mmHg 48%
16:00 +23°C° 0 mm 2 mps 750 mmHg 51%
17:00 +21°C° 0 mm 2 mps 750 mmHg 55%
18:00 +20°C° 0 mm 2 mps 750 mmHg 59%
19:00 +19°C° 0 mm 2 mps 749 mmHg 63%
20:00 +18°C° 0 mm 2 mps 750 mmHg 67%
21:00 +17°C° 0 mm 2 mps 750 mmHg 71%
22:00 +16°C° 0 mm 3 mps 750 mmHg 75%
23:00 +15°C° 0 mm 2 mps 750 mmHg 77%

5 August, Thursday

Time Temperature Precipitation Wind Pressure Humidity
00:00 +15°C° 0 mm 2 mps 750 mmHg 80%
01:00 +14°C° 0 mm 2 mps 750 mmHg 82%
02:00 +14°C° 0 mm 2 mps 749 mmHg 82%
03:00 +14°C° 0 mm 2 mps 749 mmHg 82%
04:00 +15°C° 0 mm 2 mps 749 mmHg 82%
05:00 +14°C° 0 mm 3 mps 749 mmHg 79%
06:00 +16°C° 0 mm 3 mps 749 mmHg 76%
07:00 +17°C° 0 mm 3 mps 749 mmHg 72%
08:00 +19°C° 0 mm 3 mps 749 mmHg 67%
09:00 +20°C° 0 mm 3 mps 749 mmHg 62%
10:00 +21°C° 0 mm 3 mps 749 mmHg 56%
11:00 +22°C° 0 mm 3 mps 749 mmHg 54%
12:00 +24°C° 0 mm 3 mps 748 mmHg 52%
13:00 +25°C° 0 mm 3 mps 748 mmHg 49%
14:00 +24°C° 0.1 mm 3 mps 748 mmHg 55%
15:00 +22°C° 0.1 mm 3 mps 747 mmHg 61%
16:00 +21°C° 0.1 mm 2 mps 747 mmHg 66%
17:00 +20°C° 0.3 mm 2 mps 747 mmHg 74%
18:00 +19°C° 0.3 mm 2 mps 746 mmHg 81%
19:00 +18°C° 0.3 mm 2 mps 746 mmHg 88%
20:00 +17°C° 0.3 mm 2 mps 746 mmHg 90%
21:00 +17°C° 0.3 mm 2 mps 745 mmHg 92%
22:00 +17°C° 0.3 mm 2 mps 745 mmHg 95%
23:00 +17°C° 0.8 mm 3 mps 744 mmHg 95%

6 August, Friday

Time Temperature Precipitation Wind Pressure Humidity
00:00 +17°C° 0.8 mm 4 mps 743 mmHg 95%
01:00 +17°C° 0.8 mm 4 mps 743 mmHg 95%
02:00 +17°C° 1.5 mm 4 mps 742 mmHg 96%
03:00 +17°C° 1.5 mm 4 mps 741 mmHg 96%
04:00 +16°C° 1.5 mm 5 mps 741 mmHg 97%
05:00 +16°C° 1.8 mm 5 mps 740 mmHg 97%
06:00 +15°C° 1.8 mm 5 mps 739 mmHg 97%
07:00 +15°C° 1.8 mm 5 mps 739 mmHg 97%
08:00 +15°C° 2.9 mm 5 mps 738 mmHg 97%
09:00 +15°C° 2.9 mm 5 mps 738 mmHg 97%
10:00 +15°C° 2.9 mm 5 mps 738 mmHg 96%
11:00 +15°C° 0.9 mm 5 mps 737 mmHg 96%
12:00 +15°C° 0.9 mm 5 mps 737 mmHg 96%
13:00 +16°C° 0.9 mm 5 mps 737 mmHg 96%
14:00 +16°C° 1.1 mm 6 mps 738 mmHg 96%
15:00 +16°C° 1.1 mm 7 mps 738 mmHg 95%
16:00 +16°C° 1.1 mm 8 mps 738 mmHg 95%
17:00 +16°C° 0.3 mm 7 mps 739 mmHg 94%
18:00 +16°C° 0.3 mm 7 mps 739 mmHg 93%
19:00 +16°C° 0.3 mm 7 mps 739 mmHg 93%
20:00 +16°C° 0 mm 7 mps 740 mmHg 93%
21:00 +16°C° 0 mm 7 mps 740 mmHg 93%
22:00 +15°C° 0 mm 7 mps 741 mmHg 93%
23:00 +15°C° 0 mm 6 mps 741 mmHg 93%

7 August, Saturday

Time Temperature Precipitation Wind Pressure Humidity
00:00 +15°C° 0 mm 6 mps 742 mmHg 94%
01:00 +15°C° 0 mm 6 mps 742 mmHg 94%
02:00 +14°C° 0 mm 5 mps 742 mmHg 94%
03:00 +14°C° 0 mm 5 mps 743 mmHg 94%
04:00 +14°C° 0 mm 4 mps 743 mmHg 94%
05:00 +15°C° 0 mm 4 mps 744 mmHg 91%
06:00 +17°C° 0 mm 4 mps 744 mmHg 88%
07:00 +17°C° 0 mm 4 mps 744 mmHg 84%
08:00 +19°C° 0 mm 4 mps 745 mmHg 76%
09:00 +21°C° 0 mm 4 mps 745 mmHg 67%
10:00 +22°C° 0 mm 4 mps 746 mmHg 59%
11:00 +23°C° 0 mm 4 mps 746 mmHg 56%
12:00 +25°C° 0 mm 4 mps 746 mmHg 53%
13:00 +26°C° 0 mm 4 mps 746 mmHg 51%
14:00 +26°C° 0 mm 3 mps 746 mmHg 55%
15:00 +25°C° 0 mm 3 mps 746 mmHg 59%
16:00 +24°C° 0 mm 2 mps 746 mmHg 64%
17:00 +23°C° 0 mm 2 mps 746 mmHg 66%
18:00 +23°C° 0 mm 2 mps 747 mmHg 69%
19:00 +21°C° 0 mm 3 mps 747 mmHg 71%
20:00 +21°C° 0 mm 3 mps 747 mmHg 69%
21:00 +21°C° 0 mm 3 mps 747 mmHg 67%
22:00 +21°C° 0 mm 3 mps 747 mmHg 65%
23:00 +20°C° 0 mm 3 mps 748 mmHg 69%
Show more

We Need Your Consent

Meteoprog and our Service Providers may store and access personal data such as cookies, device identifiers or other similar technologies on your device and process such data to personalise content and ads, as well as provide social media features and to analyse the traffic.

  • Store and/or access information on your device

    Cookies, device identifiers or other information can be stored or accessed on your device for the purposes indicated above.

  • Personalised ads and content, ad and content measurement, audience insights, and products development

    Ads and content can be personalised based on a profile. More data can be added to better personalise ads and content. Ad and content performance can be measured. Insights about the audience who saw the ads and content can be derived. Such data can be used to develop or improve user’s experience, systems and software.

By clicking ‘I Agree’ you will allow the use of indicated cookies, device identifiers, web beacons or other similar technologies. Your settings can be changed in the browser on your device.

For certain purposes, legitimate interests may be relied on, rather than consent. You can read more about this in our Privacy and Cookie Policy.